(89389) = 2001 VY107 = 1993 FW76

Discovered at Socorro on 2001-11-12 by LINEAR.

Orbit

Orbit type: Main Belt

Note: WebGL enabled browser required.

epoch2024-03-31.0
epoch JD2460400.5
perihelion date2019-04-24.26394
perihelion JD2458597.76394
argument of perihelion (°)201.01863
ascending node (°)333.31965
inclination (°)1.12964
eccentricity0.0406051
perihelion distance (AU)2.9014441
Tisserand w.r.t. Jupiter3.2
ΔV w.r.t. Earth (km/sec)10.6
semimajor axis (AU)3.0242438
mean anomaly (°)337.83979
mean daily motion (°/day)0.18740390
aphelion distance (AU)3.147
period (years)5.26
P-vector [x]-0.99509041
P-vector [y]0.09338399
P-vector [z]0.03277983
Q-vector [x]-0.09857345
Q-vector [y]-0.90553729
Q-vector [z]-0.41265662
absolute magnitude15.4
phase slope0.15
uncertainty0
referenceMPEC 2024-E73
observations used668
oppositions21
arc length (days)12196
first opposition used1990
last opposition used2024
residual rms (arc-secs)0.74
perturbers coarse indicatorM-v
perturbers precise indicator003Ek
first observation date used1990-10-14.0
last observation date used2024-03-05.0
computer nameMPCLINUX
JD of orbit computation2456937.281378
perihelion JD uncertainty (days)3.5254E-04
argument of perihelion uncertainty (°)2.1168E-04
ascending node uncertainty (°)2.0021E-04
inclination uncertainty (°)4.3696E-06
eccentricity uncertainty 4.9055E-08
perihelion distance uncertainty (AU)1.4027E-07
Minimum Orbit Intersection Distances (in AU)
for orbit epoch: 2460400.5, reference: E2024-E73
Mercury2.48765
Venus2.18377
Earth1.90595
Mars1.24118
Jupiter1.81366
Saturn6.02151
Uranus15.5364
Neptune26.7013

Observations

684 total observations over interval: 1990 10 14.37629 – 2024 03 05.175615
These data are available for download (format description).

Date (UT) J2000 RA J2000 Dec Magn Location Ref
1990 10 14.37629 01 17 22.52 +09 29 29.2 20.6 V 691 – Steward Observatory, Kitt Peak-Spacewatch MPS 78167
1990 10 14.39730 01 17 21.51 +09 29 23.7 20.5 V 691 – Steward Observatory, Kitt Peak-Spacewatch MPS 78167
1990 10 14.41834 01 17 20.54 +09 29 17.9 20.4 V 691 – Steward Observatory, Kitt Peak-Spacewatch MPS 78167
1993 03 21.30174 13 07 52.89 -08 21 27.3 19.4   809 – European Southern Observatory, La Silla MPC 23632
1993 03 22.29549 13 07 11.68 -08 17 43.1 19.6   809 – European Southern Observatory, La Silla MPC 23632
1998 03 29.18309 11 15 23.03 +04 08 29.6 19.9   704 – Lincoln Laboratory ETS, New Mexico MPS 44884
1998 03 29.20321 11 15 22.13 +04 08 34.3 20.0   704 – Lincoln Laboratory ETS, New Mexico MPS 44884
1998 03 29.22337 11 15 21.24 +04 08 34.7 20.1   704 – Lincoln Laboratory ETS, New Mexico MPS 44884
1998 03 29.24365 11 15 20.63 +04 08 41.4 20.6   704 – Lincoln Laboratory ETS, New Mexico MPS 44884
2001 11 12.30754 03 53 27.55 +21 57 58.5 19.8   704 – Lincoln Laboratory ETS, New Mexico MPS 44884
2001 11 12.32229 03 53 26.83 +21 57 55.6 20.0   704 – Lincoln Laboratory ETS, New Mexico MPS 44884
2001 11 12.33702 03 53 25.96 +21 57 53.7 19.9   704 – Lincoln Laboratory ETS, New Mexico MPS 44884
2001 11 12.35174 03 53 25.18 +21 57 51.0 20.3   704 – Lincoln Laboratory ETS, New Mexico MPS 44885
2001 11 16.27479 03 50 01.06 +21 48 08.7 19.8 V 291 – LPL/Spacewatch II MPS 44885
2001 11 16.29668 03 49 59.93 +21 48 05.2 19.9 V 291 – LPL/Spacewatch II MPS 44885
2001 11 16.31895 03 49 58.67 +21 48 01.7 19.9 V 291 – LPL/Spacewatch II MPS 44885
2001 11 19.28970 03 47 21.07 +21 40 12.1 19.1   704 – Lincoln Laboratory ETS, New Mexico MPS 44885
2001 11 19.30437 03 47 20.26 +21 40 09.2 19.3   704 – Lincoln Laboratory ETS, New Mexico MPS 44885
2001 11 19.31904 03 47 19.52 +21 40 07.0 19.2   704 – Lincoln Laboratory ETS, New Mexico MPS 44885
2001 11 19.33371 03 47 18.74 +21 40 05.1 19.5   704 – Lincoln Laboratory ETS, New Mexico MPS 44885
2001 11 19.34838 03 47 17.94 +21 40 02.5 19.3   704 – Lincoln Laboratory ETS, New Mexico MPS 44885
2001 11 21.23282 03 45 37.54 +21 34 53.2 19.6   704 – Lincoln Laboratory ETS, New Mexico MPS 55146
2001 11 21.24747 03 45 36.73 +21 34 51.0 19.7   704 – Lincoln Laboratory ETS, New Mexico MPS 55146
2001 11 21.27681 03 45 35.11 +21 34 45.4 19.9   704 – Lincoln Laboratory ETS, New Mexico MPS 55146
2001 11 21.29148 03 45 34.29 +21 34 43.3 19.7   704 – Lincoln Laboratory ETS, New Mexico MPS 55146
2001 12 10.21753 03 29 57.50 +20 40 31.0 20.1   704 – Lincoln Laboratory ETS, New Mexico MPS 44885
2001 12 10.23301 03 29 56.89 +20 40 28.0 20.3   704 – Lincoln Laboratory ETS, New Mexico MPS 44885
2001 12 10.24836 03 29 56.18 +20 40 24.1 20.3   704 – Lincoln Laboratory ETS, New Mexico MPS 44885
2001 12 10.26360 03 29 55.50 +20 40 22.5 20.0   704 – Lincoln Laboratory ETS, New Mexico MPS 44885
2001 12 10.27918 03 29 54.74 +20 40 20.6 19.7   704 – Lincoln Laboratory ETS, New Mexico MPS 44885
2001 12 15.16808 03 26 39.60 +20 27 24.4 20.1   704 – Lincoln Laboratory ETS, New Mexico MPS 44885
2001 12 15.18623 03 26 38.93 +20 27 21.1 20.2   704 – Lincoln Laboratory ETS, New Mexico MPS 44885
2001 12 15.20294 03 26 38.20 +20 27 18.2 20.9   704 – Lincoln Laboratory ETS, New Mexico MPS 44885
2001 12 15.21805 03 26 37.70 +20 27 16.8 19.9   704 – Lincoln Laboratory ETS, New Mexico MPS 44885
2001 12 18.15282 03 24 54.26 +20 20 04.9 19.6   704 – Lincoln Laboratory ETS, New Mexico MPS 44885
2001 12 18.16934 03 24 53.75 +20 20 02.2 20.3   704 – Lincoln Laboratory ETS, New Mexico MPS 44885
2001 12 18.18454 03 24 53.06 +20 20 00.4 20.7   704 – Lincoln Laboratory ETS, New Mexico MPS 44885
2001 12 18.19972 03 24 52.66 +20 19 59.2 20.0   704 – Lincoln Laboratory ETS, New Mexico MPS 44885
2001 12 18.21492 03 24 52.18 +20 19 56.2 20.7   704 – Lincoln Laboratory ETS, New Mexico MPS 44885
2001 12 19.14654 03 24 21.68 +20 17 45.7 19.5   704 – Lincoln Laboratory ETS, New Mexico MPS 44885
2001 12 19.18028 03 24 20.53 +20 17 42.2 20.5   704 – Lincoln Laboratory ETS, New Mexico MPS 44885
2001 12 19.19543 03 24 20.06 +20 17 39.8 20.4   704 – Lincoln Laboratory ETS, New Mexico MPS 44885
2001 12 19.21061 03 24 19.56 +20 17 38.0 19.6   704 – Lincoln Laboratory ETS, New Mexico MPS 44885
2002 01 07.08059 03 18 27.49 +19 47 58.0 21.0 V 691 – Steward Observatory, Kitt Peak-Spacewatch MPS 55146
2002 01 07.10261 03 18 27.35 +19 47 57.0 20.7 V 691 – Steward Observatory, Kitt Peak-Spacewatch MPS 55146
2002 01 07.12454 03 18 27.24 +19 47 56.2 20.8 V 691 – Steward Observatory, Kitt Peak-Spacewatch MPS 55146
2003 01 26.40356 10 14 40.63 +11 14 02.5 20.2 V 291 – LPL/Spacewatch II MPS 73277
2003 01 26.42717 10 14 39.75 +11 14 06.9 20.2 V 291 – LPL/Spacewatch II MPS 73277
2003 01 26.45104 10 14 38.81 +11 14 11.2 20.3 V 291 – LPL/Spacewatch II MPS 73277
2003 01 28.292060 10 13 29.513 +11 20 05.34 19.79 V 645 – Apache Point-Sloan Digital Sky Survey MPS 79982
2003 01 28.295532 10 13 29.371 +11 20 06.04 20.77   645 – Apache Point-Sloan Digital Sky Survey MPS 79982
2003 01 31.27477 10 11 29.65 +11 30 16.4 20.3 V 291 – LPL/Spacewatch II MPS 71587
2003 01 31.29882 10 11 28.55 +11 30 21.4 20.0 V 291 – LPL/Spacewatch II MPS 71587
2003 01 31.32727 10 11 27.31 +11 30 27.7 20.2 V 291 – LPL/Spacewatch II MPS 71587
2003 02 19.44894 09 56 23.68 +12 45 18.9 20.2   608 – Haleakala-AMOS MPS 81457
2003 02 19.46039 09 56 23.10 +12 45 21.5 20.6   608 – Haleakala-AMOS MPS 81457
2003 02 19.47179 09 56 22.54 +12 45 23.9 20.1   608 – Haleakala-AMOS MPS 81457
2003 02 21.24381 09 54 55.21 +12 52 24.0 19.0   644 – Palomar Mountain/NEAT MPS 74144
2003 02 21.26622 09 54 54.11 +12 52 29.5 18.9   644 – Palomar Mountain/NEAT MPS 74144
2003 02 21.28745 09 54 53.01 +12 52 34.6 18.9   644 – Palomar Mountain/NEAT MPS 74144
2003 02 22.27269 09 54 04.58 +12 56 25.9 19.4 R 699 – Lowell Observatory-LONEOS MPS 74144
2003 02 22.28021 09 54 04.26 +12 56 27.3   699 – Lowell Observatory-LONEOS MPS 74144
2003 02 22.28773 09 54 03.83 +12 56 29.7   699 – Lowell Observatory-LONEOS MPS 74144
2003 02 22.29523 09 54 03.49 +12 56 30.6   699 – Lowell Observatory-LONEOS MPS 74144
2003 03 12.25223 09 41 01.27 +13 56 31.6 19.3   644 – Palomar Mountain/NEAT MPS 74144
2003 03 12.27327 09 41 00.50 +13 56 34.9 19.6   644 – Palomar Mountain/NEAT MPS 74144
2003 03 12.29422 09 40 59.71 +13 56 38.3 19.8   644 – Palomar Mountain/NEAT MPS 74144
2004 05 13.36922 15 54 10.49 -22 02 52.6 20.0   644 – Palomar Mountain/NEAT MPS 106718
2004 05 13.38832 15 54 09.51 -22 02 49.8 20.3   644 – Palomar Mountain/NEAT MPS 106718
2004 05 13.40775 15 54 08.49 -22 02 46.9 20.2   644 – Palomar Mountain/NEAT MPS 106718
2004 05 16.57584 15 51 28.05 -21 55 07.6 18.9 R E12 – Siding Spring Survey MPS 107370
2004 05 16.58508 15 51 27.62 -21 55 05.7 19.0 R E12 – Siding Spring Survey MPS 107370
2004 05 16.59423 15 51 27.14 -21 55 05.1 18.6 R E12 – Siding Spring Survey MPS 107370
2004 05 16.60340 15 51 26.70 -21 55 04.3 19.3 R E12 – Siding Spring Survey MPS 107370
2004 06 09.54422 15 32 25.10 -20 51 16.6 19.7 R E12 – Siding Spring Survey MPS 109018
2004 06 09.55105 15 32 24.79 -20 51 15.4 19.1 R E12 – Siding Spring Survey MPS 109018
2004 06 09.55789 15 32 24.40 -20 51 12.1 19.8 R E12 – Siding Spring Survey MPS 109018
2004 06 09.56475 15 32 24.16 -20 51 11.9 19.4 R E12 – Siding Spring Survey MPS 109018
2005 07 28.30977 21 46 22.74 -13 54 56.8 19.9   644 – Palomar Mountain/NEAT MPS 138786
2005 07 28.33141 21 46 21.82 -13 55 01.1 19.6   644 – Palomar Mountain/NEAT MPS 138786
2005 07 28.36129 21 46 20.56 -13 55 07.2 19.9   644 – Palomar Mountain/NEAT MPS 138786
2005 08 25.32850 21 24 55.20 -15 32 04.5 20.2   644 – Palomar Mountain/NEAT MPS 139970
2005 08 25.35033 21 24 54.20 -15 32 08.2 20.2   644 – Palomar Mountain/NEAT MPS 139970
2005 08 25.37963 21 24 52.88 -15 32 13.9 20.0   644 – Palomar Mountain/NEAT MPS 139970
2006 09 27.29227 02 43 36.26 +17 13 50.0 20.1 V G96 – Mt. Lemmon Survey MPS 182240
2006 09 27.29956 02 43 36.12 +17 13 49.3 20.3 V G96 – Mt. Lemmon Survey MPS 182240
2006 09 27.30707 02 43 35.90 +17 13 48.9 20.1 V G96 – Mt. Lemmon Survey MPS 182240
2006 09 27.31454 02 43 35.72 +17 13 48.1 20.1 V G96 – Mt. Lemmon Survey MPS 182240
